Location: Unspecified
(0.0000°N, 0.0000°E)
Time: 05:14:56
(UTC+00:00)

deb NOAA 5 - Pass Details

Date: 20 February 2026
Orbit: 1470 x 1835 km, 102.5° (Epoch: 10 March)

Event Time Altitude Azimuth Distance (km) Brightness Sun altitude
Rises 20:17:39 0° 153° (SSE) 4,778 ? -30.4°
Reaches altitude 10° 20:20:41 10° 148° (SSE) 3,748 ? -31.1°
Enters shadow 20:20:54 11° 147° (SSE) 3,676 ? -31.2°
Exits shadow 20:37:44 - 358° (N) 3,821 ? -35.3°
Sets 20:39:54 0° 355° (N) 4,568 ? -35.8°
